N8QF-1 Weather Reports


Display with metric or nautical units.
time (UTC)temp
F
wind
direction
speed
MPH
gust
MPH
rain 1hr
in
rain 24hr
in
rain mn
in
humidity
%
barometer
mb
20260831145058 81 231 3.0 9.0 0.00 0.00 0.00 65 1019.7
20260831144558 81 249 4.0 8.0 0.00 0.00 0.00 66 1019.7
20260831144057 80 250 4.0 9.0 0.00 0.00 0.00 66 1019.7
20260831143556 80 221 7.0 9.0 0.00 0.00 0.00 67 1019.7
20260831143056 80 229 3.0 9.0 0.00 0.00 0.00 67 1019.7
20260831142555 80 246 6.0 8.0 0.00 0.00 0.00 67 1019.6
20260831142055 79 242 6.0 8.0 0.00 0.00 0.00 67 1019.5
20260831141554 79 256 4.0 4.0 0.00 0.00 0.00 68 1019.5
20260831141054 79 240 2.0 4.0 0.00 0.00 0.00 70 1019.5
20260831140553 79 152 3.0 5.0 0.00 0.00 0.00 70 1019.5
20260831140053 78 167 3.0 5.0 0.00 0.00 0.00 71 1019.5
20260831135552 78 233 2.0 6.0 0.00 0.00 0.00 71 1019.5
20260831135052 78 221 3.0 4.0 0.00 0.00 0.00 70 1019.5
20260831134551 78 177 2.0 4.0 0.00 0.00 0.00 71 1019.4
20260831134051 78 155 3.0 4.0 0.00 0.00 0.00 71 1019.6
20260831133549 77 198 3.0 4.0 0.00 0.00 0.00 72 1019.6
20260831133119 77 163 3.0 3.0 0.00 0.00 0.00 73 1019.6
20260831133048 77 163 3.0 3.0 0.00 0.00 0.00 73 1019.6
20260831132548 77 188 2.0 2.0 0.00 0.00 0.00 74 1019.6
20260831132205 76 187 0.0 2.0 0.00 0.00 0.00 74 1019.6
20260831132047 76 187 0.0 2.0 0.00 0.00 0.00 74 1019.6
20260831131547 76 149 1.0 1.0 0.00 0.00 0.00 75 1019.7
20260831131046 76 134 1.0 2.0 0.00 0.00 0.00 75 1019.6
20260831130546 76 138 0.0 2.0 0.00 0.00 0.00 75 1019.6
20260831130045 76 135 1.0 3.0 0.00 0.00 0.00 75 1019.5
20260831125545 76 115 2.0 3.0 0.00 0.00 0.00 75 1019.4
20260831125044 75 156 1.0 3.0 0.00 0.00 0.00 76 1019.5
20260831124544 75 152 2.0 2.0 0.00 0.00 0.00 75 1019.4
20260831123542 75 145 1.0 3.0 0.00 0.00 0.00 76 1019.3
20260831123041 75 146 1.0 2.0 0.00 0.00 0.00 76 1019.3
20260831122541 75 142 1.0 2.0 0.00 0.00 0.00 77 1019.4
20260831122040 75 135 1.0 2.0 0.00 0.00 0.00 77 1019.4
20260831121540 75 132 2.0 2.0 0.00 0.00 0.00 77 1019.3
20260831121039 75 136 1.0 2.0 0.00 0.00 0.00 77 1019.3
20260831120539 75 128 0.0 2.0 0.00 0.00 0.00 77 1019.3
20260831120038 74 104 1.0 0.0 0.00 0.00 0.00 77 1019.3
20260831115538 74 124 0.0 0.0 0.00 0.00 0.00 78 1019.2
20260831115037 74 124 0.0 0.0 0.00 0.00 0.00 78 1019.1
20260831114036 74 124 0.0 0.0 0.00 0.00 0.00 78 1019.1
20260831113535 74 124 0.0 0.0 0.00 0.00 0.00 78 1019.1
20260831113035 74 124 0.0 0.0 0.00 0.00 0.00 77 1019.1
20260831112534 74 124 0.0 1.0 0.00 0.00 0.00 77 1019.0
20260831112034 74 124 0.0 1.0 0.00 0.00 0.00 77 1019.0
20260831111533 74 139 0.0 3.0 0.00 0.00 0.00 77 1019.0
20260831110532 74 76 0.0 2.0 0.00 0.00 0.00 78 1018.9
20260831105031 74 93 1.0 2.0 0.00 0.00 0.00 77 1018.6
20260831104530 74 35 0.0 0.0 0.00 0.00 0.00 77 1018.6
20260831103528 74 75 1.0 0.0 0.00 0.00 0.00 78 1018.4
20260831103028 74 72 0.0 0.0 0.00 0.00 0.00 78 1018.4
20260831102527 74 72 0.0 3.0 0.00 0.00 0.00 78 1018.4
20260831102027 74 72 0.0 3.0 0.00 0.00 0.00 78 1018.4
20260831101526 74 68 2.0 4.0 0.00 0.00 0.00 78 1018.3
20260831101026 74 79 3.0 0.0 0.00 0.00 0.00 78 1018.3
20260831100525 74 83 0.0 0.0 0.00 0.00 0.00 78 1018.3
20260831100025 74 83 0.0 0.0 0.00 0.00 0.00 78 1018.3
20260831095523 74 83 0.0 0.0 0.00 0.00 0.00 78 1018.3
20260831095021 74 83 0.0 0.0 0.00 0.00 0.00 78 1018.3
20260831094020 74 83 0.0 0.0 0.00 0.00 0.00 78 1018.3
20260831093520 74 83 0.0 0.0 0.00 0.00 0.00 78 1018.4
20260831093019 74 83 0.0 0.0 0.00 0.00 0.00 78 1018.4
20260831092519 74 83 0.0 0.0 0.00 0.00 0.00 79 1018.4
20260831092018 74 83 0.0 0.0 0.00 0.00 0.00 79 1018.6
20260831091518 74 83 0.0 0.0 0.00 0.00 0.00 79 1018.4
20260831091017 74 83 0.0 0.0 0.00 0.00 0.00 79 1018.4
20260831090015 74 83 0.0 0.0 0.00 0.00 0.00 78 1018.4
20260831085014 74 83 0.0 0.0 0.00 0.00 0.00 79 1018.3
20260831084013 74 83 0.0 0.0 0.00 0.00 0.00 79 1018.3
20260831083513 74 83 0.0 0.0 0.00 0.00 0.00 79 1018.3
20260831083012 74 83 0.0 0.0 0.00 0.00 0.00 80 1018.2
20260831082621 74 83 0.0 0.0 0.00 0.00 0.00 80 1018.1
20260831082511 74 83 0.0 0.0 0.00 0.00 0.00 80 1018.1
20260831082011 74 83 0.0 0.0 0.00 0.00 0.00 80 1018.2
20260831081510 74 83 0.0 0.0 0.00 0.00 0.00 81 1018.3
20260831081010 74 83 0.0 0.0 0.00 0.00 0.00 81 1018.1
20260831080509 74 83 0.0 0.0 0.00 0.00 0.00 81 1017.9
20260831080009 74 83 0.0 0.0 0.00 0.00 0.00 81 1017.9
20260831075508 74 83 0.0 0.0 0.00 0.00 0.00 81 1017.7
20260831075008 74 83 0.0 0.0 0.00 0.00 0.00 81 1017.8
20260831074507 74 83 0.0 2.0 0.00 0.00 0.00 81 1017.8
20260831074007 74 83 0.0 2.0 0.00 0.00 0.00 81 1017.9
20260831073506 74 51 2.0 3.0 0.00 0.00 0.00 81 1017.9
20260831073006 74 89 0.0 0.0 0.00 0.00 0.00 80 1017.9
20260831072505 74 89 0.0 2.0 0.00 0.00 0.00 80 1018.0
20260831072005 74 89 0.0 4.0 0.00 0.00 0.00 80 1018.1
20260831071503 74 107 2.0 2.0 0.00 0.00 0.00 80 1018.2
20260831071003 74 79 0.0 3.0 0.00 0.00 0.00 80 1018.2
20260831070502 74 94 2.0 4.0 0.00 0.00 0.00 80 1018.2
20260831070040 74 142 3.0 5.0 0.00 0.00 0.00 80 1018.2
20260831070002 74 142 3.0 5.0 0.00 0.00 0.00 80 1018.2
20260831065000 74 110 0.0 0.0 0.00 0.00 0.00 81 1018.4
20260831064500 74 110 0.0 0.0 0.00 0.00 0.00 81 1018.6
20260831063959 74 110 0.0 3.0 0.00 0.00 0.00 81 1018.6
20260831063459 74 110 1.0 5.0 0.00 0.00 0.00 81 1018.4
20260831062958 74 120 3.0 4.0 0.00 0.00 0.00 81 1018.6
20260831062458 74 145 0.0 0.0 0.00 0.00 0.00 81 1018.6
20260831061957 74 65 0.0 0.0 0.00 0.00 0.00 81 1018.8
20260831061456 74 65 0.0 0.0 0.00 0.00 0.00 80 1018.8
20260831060955 74 65 0.0 0.0 0.00 0.00 0.00 80 1018.8
20260831060455 74 65 0.0 0.0 0.00 0.00 0.00 80 1018.9
20260831055954 74 65 0.0 0.0 0.00 0.00 0.00 80 1018.9
20260831054953 74 65 0.0 0.0 0.00 0.00 0.00 81 1019.1
20260831054453 74 65 0.0 0.0 0.00 0.00 0.00 81 1019.1
20260831053950 73 65 0.0 0.0 0.00 0.00 0.00 82 1019.1
20260831053450 73 65 0.0 0.0 0.00 0.00 0.00 82 1019.1
20260831052949 73 65 0.0 0.0 0.00 0.00 0.00 82 1019.1
20260831052449 73 65 0.0 0.0 0.00 0.00 0.00 82 1019.1
20260831051948 73 65 0.0 0.0 0.00 0.00 0.00 81 1019.1
20260831051448 74 65 0.0 0.0 0.00 0.00 0.00 81 1019.1
20260831050947 74 65 0.0 0.0 0.00 0.00 0.00 81 1019.1
20260831050447 74 65 0.0 0.0 0.00 0.00 0.00 80 1019.1
20260831045945 74 65 0.0 0.0 0.00 0.00 0.00 80 1019.0
20260831045444 74 65 0.0 0.0 0.00 0.00 0.00 80 1019.0
20260831044944 74 65 0.0 0.0 0.00 0.00 0.00 80 1018.9
20260831044443 74 65 0.0 0.0 0.00 0.00 0.00 80 1018.9
20260831043443 74 65 0.0 0.0 0.00 0.00 0.00 79 1018.9
20260831042942 74 65 0.0 0.0 0.00 0.00 0.00 78 1018.9
20260831042441 74 65 0.0 0.0 0.00 0.00 0.00 78 1019.1
20260831041941 74 65 0.0 0.0 0.00 0.00 0.00 78 1019.1
20260831041440 74 65 0.0 0.0 0.00 0.00 0.00 78 1019.1
20260831040940 74 65 0.0 1.0 0.00 0.00 0.00 77 1019.0
20260831040535 75 65 0.0 1.0 0.00 0.00 0.00 77 1019.0
20260831040439 75 65 0.0 1.0 0.00 0.00 0.00 77 1019.0
20260831034938 75 70 0.0 0.0 0.00 0.00 0.00 76 1019.0
20260831034437 75 70 0.0 0.0 0.00 0.00 0.00 75 1019.1
20260831033937 75 70 0.0 0.0 0.00 0.00 0.00 74 1019.1
20260831033436 76 70 0.0 0.0 0.00 0.00 0.00 74 1019.0
20260831032936 76 70 0.0 0.0 0.00 0.00 0.00 73 1019.0
20260831032435 76 70 0.0 0.0 0.00 0.00 0.00 73 1019.0
20260831031935 76 70 0.0 0.0 0.00 0.00 0.00 72 1019.1
20260831031434 76 70 0.0 0.0 0.00 0.00 0.00 72 1019.1
20260831030933 76 70 0.0 0.0 0.00 0.00 0.00 71 1019.1
20260831030433 76 70 0.0 0.0 0.00 0.00 0.00 71 1019.0
20260831025932 76 70 0.0 0.0 0.00 0.00 0.00 71 1018.9
20260831025432 77 70 0.0 0.0 0.00 0.00 0.00 71 1019.0
20260831024931 77 70 0.0 0.0 0.00 0.00 0.00 71 1019.1
20260831024431 77 70 0.0 0.0 0.00 0.00 0.00 70 1019.1
20260831023930 77 70 0.0 0.0 0.00 0.00 0.00 69 1019.0
20260831023427 77 70 0.0 0.0 0.00 0.00 0.00 69 1019.0
20260831022926 78 70 0.0 0.0 0.00 0.00 0.00 68 1019.0
20260831022426 78 70 0.0 0.0 0.00 0.00 0.00 67 1019.0
20260831021424 79 70 0.0 2.0 0.00 0.00 0.00 67 1019.0
20260831020422 79 48 0.0 3.0 0.00 0.00 0.00 66 1018.9
20260831015921 79 104 0.0 3.0 0.00 0.00 0.00 66 1018.8
20260831015421 79 70 2.0 4.0 0.00 0.00 0.00 66 1018.8
20260831014920 79 89 3.0 3.0 0.00 0.00 0.00 66 1018.8
20260831014419 78 55 3.0 3.0 0.00 0.00 0.00 67 1018.8
20260831013919 78 51 2.0 2.0 0.00 0.00 0.00 67 1018.9
20260831013418 78 37 2.0 2.0 0.00 0.00 0.00 67 1018.9
20260831012416 78 340 0.0 0.0 0.00 0.00 0.00 68 1018.9
20260831011916 78 340 0.0 0.0 0.00 0.00 0.00 67 1018.8
20260831011415 78 340 0.0 0.0 0.00 0.00 0.00 67 1018.9
20260831010915 78 340 0.0 0.0 0.00 0.00 0.00 66 1018.8
20260831010414 79 340 0.0 0.0 0.00 0.00 0.00 65 1018.8
20260831005914 79 340 0.0 0.0 0.00 0.00 0.00 65 1018.8
20260831005413 79 340 0.0 0.0 0.00 0.00 0.00 64 1018.6
20260831004913 80 340 0.0 0.0 0.00 0.00 0.00 64 1018.4
20260831004412 80 340 0.0 0.0 0.00 0.00 0.00 63 1018.3
20260831003912 80 340 0.0 0.0 0.00 0.00 0.00 62 1018.3
20260831003411 80 340 0.0 0.0 0.00 0.00 0.00 61 1018.3
20260831002911 81 340 0.0 0.0 0.00 0.00 0.00 60 1018.3
20260831002410 81 340 0.0 0.0 0.00 0.00 0.00 59 1018.2
20260831001408 82 340 0.0 0.0 0.00 0.00 0.00 58 1018.1
20260831000908 82 340 0.0 0.0 0.00 0.00 0.00 56 1018.2
20260831000407 83 340 0.0 0.0 0.00 0.00 0.00 55 1018.3
20260830235906 83 340 0.0 0.0 0.00 0.00 0.00 53 1018.3
20260830235406 84 340 0.0 1.0 0.00 0.00 0.00 52 1018.2
20260830234905 84 340 0.0 3.0 0.00 0.00 0.00 51 1018.1
20260830234405 85 290 2.0 8.0 0.00 0.00 0.00 50 1018.1
20260830233905 85 277 2.0 5.0 0.00 0.00 0.00 48 1018.1
20260830233404 85 260 0.0 5.0 0.00 0.00 0.00 47 1018.0
20260830232902 86 290 3.0 5.0 0.00 0.00 0.00 46 1018.0
20260830232402 86 285 3.0 5.0 0.00 0.00 0.00 46 1017.9
20260830231901 86 285 2.0 7.0 0.00 0.00 0.00 45 1018.0
20260830231401 86 249 6.0 9.0 0.00 0.00 0.00 44 1018.0
20260830230900 87 231 5.0 9.0 0.00 0.00 0.00 44 1018.0
20260830230400 87 242 5.0 8.0 0.00 0.00 0.00 44 1017.8
20260830225859 87 255 4.0 8.0 0.00 0.00 0.00 44 1017.7
20260830225359 86 219 4.0 7.0 0.00 0.00 0.00 45 1017.6
20260830224858 86 240 4.0 7.0 0.00 0.00 0.00 44 1017.7
20260830224357 86 242 5.0 8.0 0.00 0.00 0.00 45 1017.6
20260830223856 86 228 3.0 7.0 0.00 0.00 0.00 44 1017.6
20260830223355 87 207 4.0 12.0 0.00 0.00 0.00 44 1017.5
20260830222855 87 240 5.0 9.0 0.00 0.00 0.00 43 1017.6
20260830222355 87 217 6.0 9.0 0.00 0.00 0.00 43 1017.6
20260830221854 87 250 6.0 8.0 0.00 0.00 0.00 44 1017.7
20260830221353 86 231 4.0 8.0 0.00 0.00 0.00 44 1017.7
20260830220853 86 218 4.0 8.0 0.00 0.00 0.00 45 1017.5
20260830220352 86 250 5.0 9.0 0.00 0.00 0.00 45 1017.4
20260830215852 86 240 6.0 6.0 0.00 0.00 0.00 44 1017.6
20260830215351 86 266 4.0 8.0 0.00 0.00 0.00 45 1017.7
20260830214851 86 208 5.0 9.0 0.00 0.00 0.00 44 1017.7
20260830214350 86 255 3.0 8.0 0.00 0.00 0.00 45 1017.7
20260830213850 86 219 4.0 6.0 0.00 0.00 0.00 46 1017.7
20260830212849 86 236 4.0 6.0 0.00 0.00 0.00 46 1017.8
20260830212348 86 201 3.0 9.0 0.00 0.00 0.00 46 1017.8
20260830211848 86 224 5.0 8.0 0.00 0.00 0.00 46 1017.9
20260830211347 86 233 6.0 9.0 0.00 0.00 0.00 46 1017.9
20260830210847 86 238 4.0 5.0 0.00 0.00 0.00 46 1017.9
20260830205846 86 162 5.0 9.0 0.00 0.00 0.00 45 1017.7
20260830205345 86 181 5.0 11.0 0.00 0.00 0.00 45 1017.6
20260830204344 86 194 5.0 8.0 0.00 0.00 0.00 47 1017.7
20260830203843 86 217 3.0 7.0 0.00 0.00 0.00 47 1018.0
20260830203342 86 232 4.0 8.0 0.00 0.00 0.00 46 1018.1
20260830202841 85 211 6.0 7.0 0.00 0.00 0.00 46 1018.3
20260830202341 85 226 4.0 8.0 0.00 0.00 0.00 47 1018.3
20260830201840 85 256 6.0 7.0 0.00 0.00 0.00 47 1018.4
20260830201340 86 195 3.0 6.0 0.00 0.00 0.00 46 1018.6
20260830200839 86 173 4.0 8.0 0.00 0.00 0.00 46 1018.8
20260830200339 86 239 5.0 7.0 0.00 0.00 0.00 46 1018.9
20260830195838 86 277 4.0 7.0 0.00 0.00 0.00 47 1019.0
20260830195338 85 328 2.0 7.0 0.00 0.00 0.00 47 1019.0
20260830194837 85 302 4.0 5.0 0.00 0.00 0.00 47 1019.2
20260830194337 86 188 3.0 7.0 0.00 0.00 0.00 46 1019.2
20260830193836 86 243 2.0 7.0 0.00 0.00 0.00 46 1019.4
20260830193336 86 291 4.0 6.0 0.00 0.00 0.00 46 1019.4
20260830192835 86 117 1.0 5.0 0.00 0.00 0.00 46 1019.5
20260830192335 85 229 3.0 8.0 0.00 0.00 0.00 46 1019.7
20260830191834 85 294 5.0 5.0 0.00 0.00 0.00 47 1019.8
20260830190833 85 308 5.0 8.0 0.00 0.00 0.00 46 1020.0
20260830190332 85 252 5.0 11.0 0.00 0.00 0.00 46 1020.1
20260830185832 85 264 7.0 12.0 0.00 0.00 0.00 46 1020.2
20260830185331 86 248 5.0 8.0 0.00 0.00 0.00 46 1020.3
20260830184831 86 257 5.0 8.0 0.00 0.00 0.00 45 1020.4
20260830184330 85 326 7.0 10.0 0.00 0.00 0.00 45 1020.5
20260830183830 85 304 8.0 12.0 0.00 0.00 0.00 45 1020.6
20260830183329 85 255 8.0 11.0 0.00 0.00 0.00 46 1020.5
20260830182829 85 249 7.0 14.0 0.00 0.00 0.00 45 1020.5
20260830181828 85 301 7.0 13.0 0.00 0.00 0.00 46 1020.6
20260830181327 85 273 9.0 13.0 0.00 0.00 0.00 46 1020.6
20260830180827 86 277 8.0 13.0 0.00 0.00 0.00 46 1020.6
20260830180326 86 245 9.0 11.0 0.00 0.00 0.00 46 1020.6
20260830175826 86 253 9.0 12.0 0.00 0.00 0.00 45 1020.9
20260830175325 85 284 10.0 15.0 0.00 0.00 0.00 45 1020.8
20260830174825 86 248 6.0 13.0 0.00 0.00 0.00 47 1021.0
20260830173824 85 252 6.0 14.0 0.00 0.00 0.00 49 1021.0
20260830173323 85 243 11.0 11.0 0.00 0.00 0.00 48 1021.1
20260830172823 86 290 7.0 15.0 0.00 0.00 0.00 48 1021.0
20260830172322 86 283 7.0 11.0 0.00 0.00 0.00 48 1021.1
20260830171821 86 278 8.0 9.0 0.00 0.00 0.00 47 1021.1
20260830171321 86 323 5.0 12.0 0.00 0.00 0.00 47 1021.1
20260830170820 86 262 8.0 13.0 0.00 0.00 0.00 45 1021.2
20260830170320 86 257 7.0 10.0 0.00 0.00 0.00 48 1021.2
20260830165818 85 293 7.0 11.0 0.00 0.00 0.00 50 1021.1
20260830164817 85 242 8.0 11.0 0.00 0.00 0.00 49 1021.0
20260830163814 86 250 5.0 10.0 0.00 0.00 0.00 49 1021.1
20260830162813 85 259 6.0 11.0 0.00 0.00 0.00 49 1021.1
20260830161812 84 207 7.0 15.0 0.00 0.00 0.00 51 1021.0
20260830161312 85 226 6.0 10.0 0.00 0.00 0.00 50 1021.0
20260830160811 84 288 6.0 9.0 0.00 0.00 0.00 51 1020.9
20260830160311 84 222 7.0 11.0 0.00 0.00 0.00 52 1021.0
20260830155810 84 239 3.0 12.0 0.00 0.00 0.00 53 1021.0
20260830155310 84 240 7.0 13.0 0.00 0.00 0.00 54 1020.9
20260830154809 84 215 3.0 8.0 0.00 0.00 0.00 53 1020.9
20260830154308 84 20 1.0 7.0 0.00 0.00 0.00 55 1020.9
20260830153808 84 194 3.0 9.0 0.00 0.00 0.00 57 1020.7
20260830153340 83 217 5.0 8.0 0.00 0.00 0.00 56 1020.8
20260830153307 83 217 5.0 8.0 0.00 0.00 0.00 56 1020.8
20260830152807 83 188 5.0 7.0 0.00 0.00 0.00 56 1020.7
20260830152306 83 233 3.0 6.0 0.00 0.00 0.00 57 1020.7
20260830151806 82 214 2.0 6.0 0.00 0.00 0.00 59 1020.8
20260830151306 81 155 3.0 7.0 0.00 0.00 0.00 60 1020.7
20260830150805 82 222 6.0 9.0 0.00 0.00 0.00 60 1020.6
20260830150304 81 131 5.0 9.0 0.00 0.00 0.00 61 1020.6
20260830145804 80 201 7.0 8.0 0.00 0.00 0.00 61 1020.6
20260830145306 80 158 4.0 8.0 0.00 0.00 0.00 62 1020.4